Home > Weather > Cleveland > Past weeks

Flag for U.S.A. Weather for the Past 2 Weeks in Cleveland, Ohio, U.S.A.

Now
16 °F

Overcast.


Feels Like: 0 °F
Forecast: 16 / 20 °F
Wind: 17 mph from Northwest

Location: Cleveland-Hopkins International Airport

Current Time: Feb 11, 2016 at 10:36:56 AM

Latest Report: Feb 11, 2016 at 9:51 AM


Visibility: 10 mi

Pressure: 30.22 "Hg

Humidity: 51%

Dew point: 1 °F

Location of ClevelandLocation

Historic Weather in Cleveland — Graph

°F

Cleveland Temperature Yesterday

Maximum temperature yesterday: 24 °F (at 12:51 AM)
Minimum temperature yesterday: 16 °F (at 11:51 PM)
Average temperature yesterday: 21 °F

High & Low Weather Summary for the Past Weeks

 TemperatureHumidityPressure
High61 °F (Feb 3, 11:51 AM)96% (Feb 8, 12:51 PM)30.44 "Hg (Feb 8, 12:51 PM)
Low14 °F (Feb 11, 5:51 AM)33% (Feb 2, 3:51 PM)29.57 "Hg (Feb 3, 5:51 AM)
Average35 °F69%29.94 "Hg
* Reported Jan 27 8:51 AM — Feb 11 8:51 AM, Cleveland, Weather by CustomWeather, © 2016

Note: Actual official high and low records may vary slightly from our data, if they occured in-between our weather recording intervals... More about our weather records

Advertising

Cleveland Weather History for the Previous 24 Hours

 ConditionsComfort  
Time TempWeatherWind HumidityBarometerVisibility
8:51 AM
Thu, Feb 11
16 °FOvercast.10 mph53%30.20 "Hg10 mi
7:51 AM15 °FPartly sunny.18 mph51%30.18 "Hg10 mi
6:51 AM14 °FPassing clouds.16 mph56%30.15 "Hg9 mi
5:51 AM14 °FLight snow. Passing clouds.12 mph56%30.13 "Hg9 mi
4:51 AM15 °FLight snow. Mostly cloudy.16 mph58%30.10 "Hg9 mi
3:51 AM15 °FLight snow. Mostly cloudy.16 mph58%30.09 "Hg7 mi
2:51 AM15 °FLight snow. Overcast.20 mph61%30.08 "Hg6 mi
1:51 AM16 °FLight snow. Mostly cloudy.17 mph62%30.06 "Hg9 mi
12:51 AM16 °FLight snow. Mostly cloudy.18 mph62%30.04 "Hg5 mi
11:51 PM
Wed, Feb 10
16 °FLight snow. Overcast.18 mph71%30.03 "Hg4 mi
10:51 PM17 °FSnow. Ice fog.13 mph83%30.02 "Hg1 mi
9:51 PM18 °FSnow. Ice fog.8 mph84%30.00 "Hg1 mi
9:03 PM18 °FLight snow. Ice fog.10 mph84%29.95 "Hg1 mi
7:56 PM19 °FLight snow. Mostly cloudy.12 mph81%29.93 "Hg4 mi
6:51 PM20 °FLight snow. Passing clouds.13 mph68%29.96 "Hg9 mi
6:01 PM19 °FLight snow. Mostly cloudy.15 mph77%29.91 "Hg1 mi
4:56 PM20 °FLight snow. Mostly cloudy.9 mph78%29.89 "Hg3 mi
3:51 PM21 °FLight snow. Mostly cloudy.16 mph68%29.90 "Hg2 mi
2:51 PM21 °FLight snow. Mostly cloudy.14 mph71%29.88 "Hg2 mi
1:51 PM21 °FLight snow. Mostly cloudy.24 mph71%29.88 "Hg2 mi
12:51 PM21 °FSnow. Mostly cloudy.14 mph81%29.87 "Hg1 mi
11:51 AM22 °FLight snow. Mostly cloudy.17 mph75%29.87 "Hg2 mi
10:51 AM21 °FLight snow. Mostly cloudy.21 mph78%29.86 "Hg2 mi
Weather by CustomWeather, © 2016

See weather overviewHow to use our weather pages